Hourly Data Report for October 07, 2013

All times are specified in Local Standard Time (LST). Add 1 hour to adjust for Daylight Saving Time where and when it is observed.

ARVIAT A
NUNAVUT

61°05'38.000" N
94°04'18.000" W
10.40 m
2300427
71174
YEK

Download Data

Hourly Data (October 2013)
Hourly Data Report for October 7, 2013
Temp Definition
°C
Dew Point Temp Definition
°C
Rel Hum Definition
%
Wind Dir Definition
10's deg

Wind Spd Definition
km/h
Visibility Definition
km
Stn Press Definition
kPa
Hmdx Definition


Wind Chill Definition


Weather Definition


TIME
00:00 Legend Double Dagger 3.1 2.8 98 13 22 16.1 100.33     LegendNANA
01:00 Legend Double Dagger 3.2 2.7 96 13 21 16.1 100.32     LegendNANA
02:00 Legend Double Dagger 3.2 2.6 96 13 18 16.1 100.33     LegendNANA
03:00 Legend Double Dagger 3.0 2.7 98 13 18 9.7 100.36     LegendNANA
04:00 Legend Double Dagger 2.9 2.6 98 11 18 16.1 100.36     LegendNANA
05:00 Legend Double Dagger 2.6 2.5 99 11 22 9.7 100.38     LegendNANA
06:00 Legend Double Dagger 2.6 2.2 97 12 15 16.1 100.42     LegendNANA
07:00 Legend Double Dagger 2.6 1.3 91 10 21 16.1 100.43     LegendNANA
08:00 Legend Double Dagger 2.5 1.2 91 9 13 16.1 100.46     LegendNANA
09:00 Legend Double Dagger 2.6 -0.2 82 9 15 16.1 100.47     LegendNANA
10:00 Legend Double Dagger 3.2 0.6 83 7 15 16.1 100.50     LegendNANA
11:00 Legend Double Dagger 3.7 -0.1 76 7 17 16.1 100.52     LegendNANA
12:00 Legend Double Dagger 3.6 -0.6 74 6 18 16.1 100.54     LegendNANA
13:00 Legend Double Dagger 4.2 -0.2 73 6 21 16.1 100.55     LegendNANA
14:00 Legend Double Dagger 3.6 -0.9 72 4 11 16.1 100.59     LegendNANA
15:00 Legend Double Dagger 3.8 -0.3 75 4 17 16.1 100.58     LegendNANA
16:00 Legend Double Dagger 3.1 0.2 81 4 18 16.1 100.62     LegendNANA
17:00 Legend Double Dagger 2.4 1.1 91 6 28 16.1 100.66     LegendNANA
18:00 Legend Double Dagger 2.2 -0.4 83 5 24 16.1 100.67     LegendNANA
19:00 Legend Double Dagger 1.7 -1.2 81 4 24 16.1 100.72     LegendNANA
20:00 Legend Double Dagger 1.3 -1.9 80 4 17 16.1 100.77     LegendNANA
21:00 Legend Double Dagger 1.0 -2.6 77 4 21 16.1 100.77     LegendNANA
22:00 Legend Double Dagger 0.6 -2.6 79 1 21 16.1 100.80     LegendNANA
23:00 Legend Double Dagger -0.5 -2.1 89 36 18 16.1 100.80   -6 LegendNANA

Notes on Data Quality.

Legend

  • E = Estimated
  • M = Missing
  • NA = Not Available
  • ‡ = Partner data that is not subject to review by the National Climate Archives
Date modified: